• In Österreich
  • Länderverzeichnis
  • Für 7 Tage
  • Wassertemperatur
  • Satellitenkarten
  • Wetterkarte
  • News
  • Widgets
  • user-avatar
    Anmelden

    Stündliche Wetter Уэйкфилд

    Heute, 19 September, Mittwoch

    Zeit Temperatur Niederschläge Wind Luftdruck Luftfeuchtigkeit
    00:00 +15°C° 0 mm 5 m/S 748 mmHg 82%
    01:00 +15°C° 0 mm 5 m/S 748 mmHg 83%
    02:00 +15°C° 0 mm 5 m/S 748 mmHg 85%
    03:00 +14°C° 0 mm 5 m/S 749 mmHg 87%
    04:00 +14°C° 0 mm 5 m/S 748 mmHg 87%
    05:00 +14°C° 0 mm 5 m/S 748 mmHg 88%
    06:00 +14°C° 0 mm 5 m/S 748 mmHg 89%
    07:00 +15°C° 0 mm 7 m/S 747 mmHg 84%
    08:00 +15°C° 0 mm 8 m/S 747 mmHg 80%
    09:00 +16°C° 0 mm 10 m/S 746 mmHg 75%
    10:00 +17°C° 0.2 mm 10 m/S 746 mmHg 75%
    11:00 +17°C° 0.2 mm 11 m/S 746 mmHg 74%
    12:00 +18°C° 0.2 mm 12 m/S 746 mmHg 73%
    13:00 +17°C° 0.4 mm 11 m/S 746 mmHg 71%
    14:00 +16°C° 0.4 mm 10 m/S 747 mmHg 69%
    15:00 +14°C° 0.4 mm 10 m/S 747 mmHg 67%
    16:00 +15°C° 0 mm 9 m/S 748 mmHg 66%
    17:00 +13°C° 0 mm 8 m/S 748 mmHg 64%
    18:00 +12°C° 0 mm 7 m/S 749 mmHg 63%
    19:00 +12°C° 0 mm 7 m/S 750 mmHg 63%
    20:00 +11°C° 0 mm 6 m/S 750 mmHg 63%
    21:00 +11°C° 0 mm 6 m/S 751 mmHg 63%
    22:00 +10°C° 0 mm 6 m/S 751 mmHg 65%
    23:00 +10°C° 0 mm 6 m/S 751 mmHg 66%

    Morgen, 20 September, Donnerstag

    Zeit Temperatur Niederschläge Wind Luftdruck Luftfeuchtigkeit
    00:00 +10°C° 0 mm 5 m/S 751 mmHg 68%
    01:00 +10°C° 0.4 mm 5 m/S 751 mmHg 73%
    02:00 +10°C° 0.4 mm 4 m/S 751 mmHg 79%
    03:00 +10°C° 0.4 mm 4 m/S 751 mmHg 84%
    04:00 +10°C° 0.4 mm 3 m/S 751 mmHg 85%
    05:00 +10°C° 0.4 mm 3 m/S 751 mmHg 86%
    06:00 +10°C° 0.4 mm 2 m/S 750 mmHg 87%
    07:00 +10°C° 0.1 mm 2 m/S 750 mmHg 86%
    08:00 +12°C° 0.1 mm 2 m/S 750 mmHg 85%
    09:00 +12°C° 0.1 mm 2 m/S 750 mmHg 83%
    10:00 +13°C° 0.1 mm 2 m/S 750 mmHg 79%
    11:00 +14°C° 0.1 mm 2 m/S 749 mmHg 76%
    12:00 +14°C° 0.1 mm 2 m/S 749 mmHg 72%
    13:00 +14°C° 0.8 mm 2 m/S 748 mmHg 77%
    14:00 +14°C° 0.8 mm 2 m/S 747 mmHg 82%
    15:00 +14°C° 0.8 mm 2 m/S 746 mmHg 87%
    16:00 +14°C° 3.6 mm 4 m/S 744 mmHg 88%
    17:00 +14°C° 3.6 mm 5 m/S 743 mmHg 89%
    18:00 +15°C° 3.6 mm 7 m/S 741 mmHg 90%
    19:00 +15°C° 1.6 mm 7 m/S 740 mmHg 90%
    20:00 +16°C° 1.6 mm 8 m/S 739 mmHg 89%
    21:00 +16°C° 1.6 mm 8 m/S 738 mmHg 89%
    22:00 +16°C° 1.2 mm 8 m/S 737 mmHg 88%
    23:00 +16°C° 1.2 mm 9 m/S 737 mmHg 86%

    übermorgen, 21 September, Freitag

    Zeit Temperatur Niederschläge Wind Luftdruck Luftfeuchtigkeit
    00:00 +15°C° 1.2 mm 9 m/S 736 mmHg 85%
    01:00 +12°C° 0.1 mm 10 m/S 737 mmHg 82%
    02:00 +9°C° 0.1 mm 10 m/S 738 mmHg 80%
    03:00 +7°C° 0.1 mm 11 m/S 739 mmHg 77%
    04:00 +7°C° 0.1 mm 10 m/S 740 mmHg 76%
    05:00 +7°C° 0.1 mm 10 m/S 742 mmHg 75%
    06:00 +7°C° 0.1 mm 9 m/S 743 mmHg 74%
    07:00 +7°C° 0 mm 9 m/S 743 mmHg 71%
    08:00 +8°C° 0 mm 10 m/S 744 mmHg 68%
    09:00 +9°C° 0 mm 10 m/S 745 mmHg 65%
    10:00 +10°C° 0.1 mm 9 m/S 745 mmHg 65%
    11:00 +10°C° 0.1 mm 9 m/S 746 mmHg 66%
    12:00 +11°C° 0.1 mm 8 m/S 746 mmHg 66%
    13:00 +11°C° 0.2 mm 9 m/S 747 mmHg 68%
    14:00 +11°C° 0.2 mm 9 m/S 748 mmHg 69%
    15:00 +11°C° 0.2 mm 9 m/S 748 mmHg 71%
    16:00 +10°C° 0.1 mm 8 m/S 749 mmHg 72%
    17:00 +10°C° 0.1 mm 8 m/S 750 mmHg 73%
    18:00 +10°C° 0.1 mm 7 m/S 751 mmHg 73%
    19:00 +9°C° 0 mm 6 m/S 752 mmHg 74%
    20:00 +9°C° 0 mm 6 m/S 753 mmHg 75%
    21:00 +9°C° 0 mm 5 m/S 753 mmHg 76%
    22:00 +8°C° 0 mm 5 m/S 754 mmHg 77%
    23:00 +8°C° 0 mm 5 m/S 754 mmHg 77%

    22 September, Samstag

    Zeit Temperatur Niederschläge Wind Luftdruck Luftfeuchtigkeit
    00:00 +8°C° 0 mm 5 m/S 755 mmHg 77%
    01:00 +7°C° 0 mm 4 m/S 755 mmHg 77%
    02:00 +7°C° 0 mm 4 m/S 756 mmHg 77%
    03:00 +7°C° 0 mm 4 m/S 756 mmHg 78%
    04:00 +7°C° 0 mm 4 m/S 756 mmHg 78%
    05:00 +7°C° 0 mm 4 m/S 757 mmHg 78%
    06:00 +7°C° 0 mm 4 m/S 757 mmHg 78%
    07:00 +8°C° 0 mm 5 m/S 758 mmHg 74%
    08:00 +9°C° 0 mm 5 m/S 758 mmHg 70%
    09:00 +10°C° 0 mm 6 m/S 758 mmHg 66%
    10:00 +11°C° 0 mm 6 m/S 759 mmHg 63%
    11:00 +11°C° 0 mm 6 m/S 759 mmHg 60%
    12:00 +13°C° 0 mm 6 m/S 759 mmHg 57%
    13:00 +13°C° 0 mm 5 m/S 759 mmHg 57%
    14:00 +13°C° 0 mm 5 m/S 759 mmHg 57%
    15:00 +13°C° 0 mm 5 m/S 759 mmHg 57%
    16:00 +12°C° 0 mm 4 m/S 758 mmHg 61%
    17:00 +11°C° 0 mm 3 m/S 758 mmHg 65%
    18:00 +10°C° 0 mm 2 m/S 758 mmHg 69%
    19:00 +11°C° 0 mm 1 m/S 758 mmHg 69%
    20:00 +10°C° 0 mm 1 m/S 758 mmHg 69%
    21:00 +10°C° 0 mm 1 m/S 758 mmHg 70%
    22:00 +10°C° 0.5 mm 1 m/S 757 mmHg 74%
    23:00 +9°C° 0.5 mm 2 m/S 756 mmHg 78%

    23 September, Sonntag

    Zeit Temperatur Niederschläge Wind Luftdruck Luftfeuchtigkeit
    00:00 +9°C° 0.5 mm 3 m/S 755 mmHg 82%
    01:00 +8°C° 2.4 mm 4 m/S 754 mmHg 85%
    02:00 +8°C° 2.4 mm 5 m/S 752 mmHg 88%
    03:00 +6°C° 2.4 mm 7 m/S 750 mmHg 91%
    04:00 +8°C° 3.5 mm 7 m/S 747 mmHg 91%
    05:00 +7°C° 3.5 mm 8 m/S 745 mmHg 92%
    06:00 +9°C° 3.5 mm 8 m/S 742 mmHg 92%
    07:00 +11°C° 2.1 mm 8 m/S 739 mmHg 93%
    08:00 +12°C° 2.1 mm 8 m/S 737 mmHg 93%
    09:00 +15°C° 2.1 mm 8 m/S 734 mmHg 94%
    10:00 +15°C° 1.5 mm 7 m/S 732 mmHg 90%
    11:00 +15°C° 1.5 mm 7 m/S 730 mmHg 85%
    12:00 +15°C° 1.5 mm 7 m/S 728 mmHg 81%
    13:00 +13°C° 0.8 mm 8 m/S 729 mmHg 82%
    14:00 +13°C° 0.8 mm 10 m/S 730 mmHg 84%
    15:00 +12°C° 0.8 mm 12 m/S 730 mmHg 85%
    16:00 +9°C° 0.7 mm 13 m/S 734 mmHg 82%
    17:00 +8°C° 0.7 mm 15 m/S 738 mmHg 78%
    18:00 +6°C° 0.7 mm 16 m/S 742 mmHg 75%
    19:00 +6°C° 0 mm 14 m/S 746 mmHg 74%
    20:00 +7°C° 0 mm 12 m/S 749 mmHg 72%
    21:00 +6°C° 0 mm 10 m/S 753 mmHg 71%
    22:00 +6°C° 0 mm 9 m/S 755 mmHg 70%
    23:00 +5°C° 0 mm 9 m/S 757 mmHg 70%

    24 September, Montag

    Zeit Temperatur Niederschläge Wind Luftdruck Luftfeuchtigkeit
    00:00 +5°C° 0 mm 8 m/S 759 mmHg 70%
    01:00 +4°C° 0 mm 7 m/S 760 mmHg 70%
    02:00 +4°C° 0 mm 6 m/S 761 mmHg 70%
    03:00 +3°C° 0 mm 6 m/S 763 mmHg 70%
    04:00 +3°C° 0 mm 5 m/S 764 mmHg 70%
    05:00 +3°C° 0 mm 5 m/S 765 mmHg 70%
    06:00 +3°C° 0 mm 4 m/S 766 mmHg 70%
    07:00 +5°C° 0 mm 4 m/S 766 mmHg 67%
    08:00 +7°C° 0 mm 4 m/S 767 mmHg 64%
    09:00 +8°C° 0 mm 4 m/S 768 mmHg 61%
    10:00 +10°C° 0 mm 4 m/S 768 mmHg 59%
    11:00 +11°C° 0 mm 4 m/S 769 mmHg 57%
    12:00 +12°C° 0 mm 4 m/S 769 mmHg 55%
    13:00 +12°C° 0 mm 4 m/S 769 mmHg 57%
    14:00 +13°C° 0 mm 4 m/S 769 mmHg 58%
    15:00 +13°C° 0 mm 4 m/S 769 mmHg 60%
    16:00 +12°C° 0 mm 4 m/S 769 mmHg 64%
    17:00 +11°C° 0 mm 4 m/S 769 mmHg 69%
    18:00 +10°C° 0 mm 3 m/S 770 mmHg 74%
    19:00 +9°C° 0 mm 3 m/S 770 mmHg 76%
    20:00 +8°C° 0 mm 3 m/S 770 mmHg 77%
    21:00 +8°C° 0 mm 2 m/S 771 mmHg 79%
    22:00 +7°C° 0 mm 2 m/S 771 mmHg 80%
    23:00 +7°C° 0 mm 2 m/S 771 mmHg 81%
    Mehr zeigen